Regional Weather Roundup
Issued by NWS

Home | Current Version | Previous Version | Graphics & Text | Print | Product List | Glossary On
Versions: 1 2 3 4 5 6 7 8 9 10 11 12 13 14 15 16 17 18 19 20 21 22 23 24 25 26 27 28 29 30 31 32 33 34 35 36 37 38 39 40 41 42 43 44 45 46 47 48 49 50
000
ASUS43 KLMK 151602
RWRKY
KENTUCKY REGIONAL WEATHER ROUNDUP
NATIONAL WEATHER SERVICE LOUISVILLE KY
1200 PM EDT TUE APR 15 2014

NOTE "FAIR" INDICATES FEW OR NO CLOUDS BELOW 12,000 FEET
WITH NO SIGNIFICANT WEATHER AND/OR OBSTRUCTIONS TO VISIBILITY.

KYZ001>023-026-027-061>063-070>075-151700-
WESTERN AND SOUTH CENTRAL KENTUCKY

CITY           SKY/WX    TMP DP  RH WIND       PRES   REMARKS
PADUCAH        SUNNY     44  21  40 N20       30.20R
HENDERSON      PTSUNNY   37  25  60 N13G21    30.18R WCI  29
OWENSBORO      PTSUNNY   38  21  50 N14G24    30.17R WCI  30
HOPKINSVILLE   PTSUNNY   40  24  51 NW13G23   30.16R WCI  33
BOWLING GREEN  CLOUDY    42  23  46 N10G21    30.12R
GLASGOW        NOT AVBL
$$

KYZ024-025-028>034-038-045-046-053-151700-
NORTH CENTRAL KENTUCKY

CITY           SKY/WX    TMP DP  RH WIND       PRES   REMARKS
LOUISVILLE/SDF PTSUNNY   39  25  57 NW16      30.09R WCI  30
LOUISVILLE/LOU PTSUNNY   43  27  53 N7        30.09R
FORT KNOX      PTSUNNY   39  22  51 NW21G28   30.08R WCI  29
$$

KYZ035>037-039>044-047>052-055>060-089>105-151700-
NORTHEAST KENTUCKY

CITY           SKY/WX    TMP DP  RH WIND       PRES   REMARKS
LEXINGTON      CLOUDY    36  29  75 NW13      30.04R WCI  27
COVINGTON      PTSUNNY   36  25  64 NW13      30.05R WCI  27
FRANKFORT      CLOUDY    36  31  82 NW7       30.05R WCI  30
$$

KYZ054-064>069-076>088-106>120-151700-
SOUTHEAST KENTUCKY

CITY           SKY/WX    TMP DP  RH WIND       PRES   REMARKS
JACKSON        LGT SNOW  32  30  92 VRB6      29.98F VSB 3/4 WCI  26
LONDON         FLURRIES  34  30  85 N8        30.02R WCI  27
SOMERSET       NOT AVBL
MIDDLESBORO    NOT AVBL
MONTICELLO     CLOUDY    36  33  88 N9        30.07R WCI  29
$$




USA.gov is the U.S. government's official web portal to all federal, state and local government web resources and services.